TRANSPORTER-15 S (66682 NORAD) Tracking and Keplerian Element Data

This shows tracking and keplerian element data for the satellite.

Feedback or suggestion? Click here.




ElementValue
Catalog66682
NameTRANSPORTER-15 S
Epoch Orbit324
Epoch Day354.13037603
Epoch Year2025
RAAN65.7643
Inclination97.4468
Eccentricity0.0004739
Argument of Perigee251.0315
Mean Anonmoly109.0405
Mean Motion15.17084078
Decay Rate7.284E-05
L11 66682U 25276S 25354.13037603 .00007284 00000+0 37092-3 0 9996
L22 66682 97.4468 65.7643 0004739 251.0315 109.0405 15.17084078 3248



Live tracking and technical data element details for TRANSPORTER-15 S (NORAD 66682). TRANSPORTER-15 S can be tracked NOW for your location showing map with azimuth and elevation plus other details from your city location.







IsCatalogInMostPopularTable: catalog: 66682, numindb: 11
Update: records affected: 1



GetName: 66682 TRANSPORTER-15 S

Hit Count: updated at: Mon, 20 Apr 2026 10:41:24 GMT